This is the latest recevied weather packets stored in our database for station/object W4MSI. If no packets are shown the sender has not sent any weather packets the latest 10 day(s).
| Time | Temp. | Humidity | Pressure | Rain* | Wind** | Luminosity | Snow |
|---|---|---|---|---|---|---|---|
| 1777479749 | 17.22° C | 88% | 1014 hPa | 0 mm | - | 248 W/m² | - |
| 1777479447 | 17.22° C | 88% | 1013.7 hPa | 0 mm | - | 278 W/m² | - |
| 1777479143 | 17.22° C | 88% | 1013.5 hPa | 0 mm | - | 258 W/m² | - |
| 1777478840 | 16.67° C | 89% | 1013.4 hPa | 0 mm | - | 310 W/m² | - |
| 1777478536 | 16.67° C | 90% | 1013.3 hPa | 0 mm | - | 226 W/m² | - |
| 1777478234 | 17.22° C | 89% | 1013.3 hPa | 0 mm | - | 132 W/m² | - |
| 1777477930 | 17.78° C | 88% | 1013.3 hPa | 0 mm | - | 130 W/m² | - |
| 1777477626 | 17.78° C | 89% | 1013.2 hPa | 0 mm | - | 290 W/m² | - |
| 1777477322 | 17.22° C | 89% | 1013 hPa | 0 mm | - | 231 W/m² | - |
| 1777477019 | 18.33° C | 87% | 1012.6 hPa | 0 mm | - | 191 W/m² | - |
| 1777476717 | 18.33° C | 87% | 1012.5 hPa | 0 mm | - | 246 W/m² | - |
| 1777476413 | 18.33° C | 87% | 1012.5 hPa | 0 mm | - | 292 W/m² | - |
| 1777476110 | 17.78° C | 89% | 1012.4 hPa | 0 mm | - | 454 W/m² | - |
| 1777475805 | 17.78° C | 90% | 1012.2 hPa | 0 mm | - | 276 W/m² | - |
| 1777475502 | 17.78° C | 90% | 1012.4 hPa | 0 mm | - | 191 W/m² | - |
| 1777475198 | 17.78° C | 92% | 1012.3 hPa | 0 mm | - | 326 W/m² | - |
| 1777474894 | 17.78° C | 92% | 1012.5 hPa | 0 mm | - | 278 W/m² | - |
| 1777474589 | 17.78° C | 93% | 1012.2 hPa | 0 mm | - | 270 W/m² | - |
| 1777474286 | 17.78° C | 94% | 1012 hPa | 0 mm | - | 309 W/m² | - |
| 1777473983 | 17.78° C | 95% | 1012 hPa | 0 mm | - | 269 W/m² | - |
| 1777473681 | 17.78° C | 95% | 1012 hPa | 0 mm | - | 165 W/m² | - |
| 1777473377 | 17.22° C | 95% | 1011.9 hPa | 0 mm | - | 155 W/m² | - |
| 1777473073 | 17.22° C | 95% | 1012.1 hPa | 0 mm | - | 122 W/m² | - |
| 1777472770 | 17.78° C | 95% | 1011.8 hPa | 0 mm | - | 87 W/m² | - |
| 1777472466 | 18.33° C | 95% | 1012 hPa | 0 mm | - | 72 W/m² | - |
* Rain latest hour (hover to see other rain measurements)
** Current wind speed in m/s (hover to see current wind gust speed)